Louisville, KY

5:04 AM EDT on September 28, 2016 (GMT -0400)
Louisville International-Standiford

Weather History for KSDF - February, 2013

Change the Weather History Date:

Tuesday, February 19, 2013

  Actual Average Record
Temperature  
Mean Temperature 37 °F 40 °F  
Max Temperature 48 °F 49 °F 74 °F (1939)
Min Temperature 25 °F 31 °F -3 °F (2015)
Degree Days  
Heating Degree Days 28 25  
Month to date heating degree days 512 518  
Since 1 July heating degree days 2834 3027  
Cooling Degree Days 0 0  
Month to date cooling degree days 0 0  
Year to date cooling degree days 0 0  
Moisture  
Dew Point 28 °F    
Average Humidity 66    
Maximum Humidity 92    
Minimum Humidity 40    
Precipitation  
Precipitation 0.18 in 0.12 in 1.47 in (1882)
Month to date precipitation 0.87 2.15  
Year to date precipitation 5.97 5.39  
Snow  
Snow 0.00 in 0.20 in 9.00 in (1921)
Month to date snowfall 3.2 3.4  
Since 1 July snowfall 8.1 9.9  
Snow Depth 0.00 in    
Sea Level Pressure  
Sea Level Pressure 29.94 in    
Wind  
Wind Speed 20 mph (West)    
Max Wind Speed 33 mph    
Max Gust Speed 43 mph    
Visibility 9 miles    
Events Rain    
T = Trace of Precipitation, MM = Missing Value Source: NWS Daily Summary

Daily Weather History Graph

Daily Weather History Graph

Search for Another Location

Airport or City:

Trip Planner

Search our weather history database for the weather conditions in past years. The results will help you decide how hot, cold, wet, or windy it might be!

Date:

Astronomy

Feb. 19, 2013 Rise Set
Actual Time 7:27 AM EST 6:26 PM EST
Civil Twilight 7:01 AM EST 6:52 PM EST
Nautical Twilight 6:30 AM EST 7:23 PM EST
Astronomical Twilight 5:59 AM EST 7:54 PM EST
Moon 12:59 PM EST (2/19) 2:56 AM EST (2/19)
Length of Visible Light 11h 51m
Length of Day
10h 58m
Waxing Gibbous, 67% of the Moon is Illuminated
Feb 19
Waxing Gibbous
Feb 25
Full
Mar 4
Last Quarter
Mar 11
New
Mar 19
First Quarter

Hourly Weather History & Observations

Time (EST) Temp. Windchill Dew Point Humidity Pressure Visibility Wind Dir Wind Speed Gust Speed Precip Events Conditions
12:56 AM 48.0 °F - 41.0 °F 77% 29.74 in 10.0 mi South 24.2 mph 40.3 mph 0.01 in   Overcast
1:56 AM 48.0 °F - 41.0 °F 77% 29.73 in 8.0 mi South 29.9 mph 39.1 mph 0.00 in Rain Light Rain
2:30 AM 46.4 °F 40.1 °F 42.8 °F 87% 29.74 in 8.0 mi SSW 15.0 mph 29.9 mph 0.01 in Rain Light Rain
2:56 AM 46.9 °F - 43.0 °F 86% 29.74 in 6.0 mi SSW 13.8 mph 21.9 mph 0.03 in Rain Light Rain
3:32 AM 44.6 °F 35.5 °F 41.0 °F 87% 29.77 in 4.0 mi West 25.3 mph 34.5 mph 0.06 in Rain Rain
3:47 AM 39.2 °F 28.5 °F 37.4 °F 93% 29.79 in 5.0 mi WNW 24.2 mph 32.2 mph 0.06 in Rain Rain
3:56 AM 39.0 °F 28.5 °F 36.0 °F 89% 29.80 in 5.0 mi WNW 23.0 mph 35.7 mph 0.09 in Rain Rain
4:17 AM 39.2 °F 30.8 °F 35.6 °F 87% 29.81 in 4.0 mi WNW 15.0 mph 25.3 mph 0.03 in Rain Rain
4:31 AM 39.2 °F 32.0 °F 37.4 °F 93% 29.82 in 5.0 mi WNW 11.5 mph - 0.04 in Rain Light Rain
4:40 AM 37.4 °F 29.3 °F 37.4 °F 100% 29.83 in 8.0 mi West 12.7 mph - 0.05 in Rain Light Rain
4:56 AM 37.4 °F 26.6 °F 35.6 °F 93% 29.84 in 10.0 mi West 21.9 mph 33.4 mph N/A Rain Light Rain
5:06 AM 39.2 °F 29.0 °F 35.6 °F 87% 29.83 in 10.0 mi West 21.9 mph 28.8 mph 0.00 in   Overcast
5:56 AM 37.9 °F 26.8 °F 34.0 °F 86% 29.86 in 9.0 mi West 24.2 mph 31.1 mph 0.00 in   Overcast
6:08 AM 37.4 °F 27.5 °F 33.8 °F 87% 29.86 in 10.0 mi West 18.4 mph 27.6 mph N/A   Overcast
6:56 AM 37.0 °F 26.2 °F 30.9 °F 79% 29.89 in 10.0 mi West 21.9 mph 29.9 mph N/A   Overcast
7:44 AM 33.8 °F 23.2 °F 26.6 °F 75% 29.92 in 10.0 mi West 17.3 mph 25.3 mph N/A   Overcast
7:52 AM 33.8 °F 23.5 °F 26.6 °F 75% 29.92 in 10.0 mi West 16.1 mph 23.0 mph N/A   Mostly Cloudy
7:56 AM 34.0 °F 23.8 °F 26.1 °F 73% 29.93 in 10.0 mi West 16.1 mph 21.9 mph N/A   Mostly Cloudy
8:26 AM 33.8 °F 23.5 °F 26.6 °F 75% 29.94 in 10.0 mi West 16.1 mph 24.2 mph N/A   Overcast
8:56 AM 35.1 °F 23.3 °F 26.1 °F 70% 29.95 in 10.0 mi West 23.0 mph 31.1 mph N/A   Overcast
9:56 AM 35.1 °F 23.0 °F 23.0 °F 61% 29.97 in 10.0 mi West 24.2 mph 33.4 mph N/A   Mostly Cloudy
10:56 AM 35.1 °F 22.7 °F 21.9 °F 59% 29.99 in 10.0 mi West 25.3 mph 32.2 mph N/A   Mostly Cloudy
11:56 AM 39.0 °F 29.0 °F 24.1 °F 55% 30.00 in 10.0 mi WSW 20.7 mph 27.6 mph N/A   Mostly Cloudy
12:56 PM 39.9 °F 30.0 °F 21.0 °F 47% 30.01 in 10.0 mi West 21.9 mph 33.4 mph N/A   Mostly Cloudy
1:56 PM 37.9 °F 27.9 °F 19.9 °F 48% 30.02 in 10.0 mi West 19.6 mph 28.8 mph N/A   Mostly Cloudy
2:56 PM 37.9 °F 27.9 °F 19.0 °F 47% 30.02 in 10.0 mi West 19.6 mph 27.6 mph N/A   Mostly Cloudy
3:56 PM 39.0 °F 29.6 °F 19.0 °F 45% 30.05 in 10.0 mi West 18.4 mph 26.5 mph N/A   Mostly Cloudy
4:56 PM 37.0 °F 26.2 °F 16.0 °F 42% 30.08 in 10.0 mi West 21.9 mph 32.2 mph N/A   Scattered Clouds
5:56 PM 35.1 °F 23.8 °F 17.1 °F 48% 30.11 in 10.0 mi WNW 20.7 mph 24.2 mph N/A   Scattered Clouds
7:56 PM 30.9 °F 22.2 °F 18.0 °F 59% 30.16 in 10.0 mi WNW 10.4 mph - N/A   Clear
8:56 PM 30.0 °F 21.1 °F 19.0 °F 64% 30.17 in 10.0 mi WNW 10.4 mph - N/A   Partly Cloudy
9:56 PM 28.0 °F 15.3 °F 17.1 °F 63% 30.18 in 10.0 mi WNW 18.4 mph 26.5 mph N/A   Partly Cloudy
10:56 PM 27.0 °F 16.1 °F 15.1 °F 61% 30.20 in 10.0 mi WNW 12.7 mph 23.0 mph N/A   Partly Cloudy
11:56 PM 25.0 °F 13.6 °F 14.0 °F 63% 30.22 in 10.0 mi WNW 12.7 mph - N/A   Partly Cloudy